Location: C�mpuri de-Sus
(45.9500°N, 22.5500°E)
Time: 13:18:10
(UTC+00:00)

Cosmos 1892 - Pass Details

Date: 24 October 2021
Orbit: 501 x 522 km, 82.5° (Epoch: 06 December)

Event Time Altitude Azimuth Distance (km) Brightness Sun altitude
Rises 17:10:33 0° 352° (N) 2,617 6.4 -18.4°
Reaches altitude 10° 17:12:42 10° 354° (N) 1,725 5.4 -18.8°
Maximum altitude 17:16:28 78° 80° (E) 520 2.5 -19.4°
Enters shadow 17:18:21 28° 164° (SSE) 966 3.9 -19.8°
